Vertical_Velocity
0 2 6 9 2 -2 -1 -3 -3 2 4 1 2 -3 -1 -2 -0 1 4 8 -1 -8 -4 -5 -1 2 1 -2 -3 -1 -1 -0 -1 -2 1 -1 -1 -11
-2 2 0 -0 1 1 2 -1 -3 -3 1 1 -5 -1 -4 -2 -2 -2 -2 -3 -1 -2 -4 -5 -7 -9 -6 1 5 4 1 -0 -1 -1 -1 1 1 -0
1 0 -0 1 2 1 -2 -5 -4 -4 -4 -0 1 -2 -2 -4 -5 -2 2 1 2 5 -5 3 4 -2 -4 -4 -4 2 5 3 -0 2 0 4 4 3
1 1 1 2 2 2 2 1 1 0 3 5 1 2 3 -2 -2 -1 3 3 -0 1 2 -2 2 1 -3 -4 -1 -4 -3 2 7 5 4 -4 -1 2
-4 -4 -2 -1 -0 0 2 1 0 -1 2 3 -1 -1 2 -1 3 4 5 1 -2 0 2 1 2 1 0 -1 2 0 1 2 2 7 5 1 3 6
-1 -1 -0 -1 -1 -1 -2 -3 -3 -4 -5 -4 -3 -3 0 -3 2 4 -2 -1 6 -3 -1 -4 -4 -4 -1 -1 0 -3 -1 -4 -3 -2 -1 -1 3 -2
1 2 1 -0 -1 -1 -0 -1 -1 -2 -2 -2 1 3 2 1 0 -1 7 1 -4 -1 -3 -2 -4 -4 -3 -2 -2 0 -1 -1 -5 -4 -6 -2 1 -0
-1 -2 -2 0 -1 -0 0 1 2 2 2 3 -2 -1 -0 0 -1 -1 1 -1 -1 -7 -4 -2 -3 -1 -3 -3 -4 -2 -4 -4 -2 1 -5 -6 -4 -2
-0 -0 1 -0 -1 -2 -1 -1 -0 1 0 -0 2 1 1 -1 -0 -4 -2 -1 -1 -2 1 -0 -6 -6 -1 0 -5 -2 -4 -3 -1 -0 1 0 -4 -4
1 2 1 0 -1 -0 0 -1 -1 -2 -0 0 0 -1 -3 -3 -3 -3 -3 -5 -5 -1 -2 3 -0 -2 0 1 -2 -0 -1 -0 -1 0 -1 2 -2 -0
-0 1 0 0 1 1 3 1 -0 -0 -3 -4 -3 -1 -1 -1 -2 -5 -2 0 -3 -1 -3 -1 -4 -1 -2 -2 -1 -1 0 3 3 3 0 -2 -1 1
-0 -1 1 -0 -1 -2 -1 -1 1 1 1 -0 -0 -1 -3 -1 -3 -3 -3 -3 -1 -1 -7 -6 -6 -2 2 -2 -5 -4 -4 -1 1 0 -1 5 3 0
-1 -1 -1 1 -0 -1 -1 -1 1 1 0 1 1 1 -2 -2 -2 -0 -1 -2 -3 -3 -3 -4 -2 -5 -5 -1 -1 -3 -3 -3 -1 1 2 -2 -0 3
0 1 -0 1 -0 -1 -1 -0 0 -1 1 1 1 2 1 -1 -1 -1 -1 -1 -2 -3 -5 -4 -5 -3 -1 -1 -2 -1 -2 -2 1 -3 -4 -2 -2 -5
0 1 -3 -3 -2 -1 -1 -2 -1 -0 1 2 1 1 1 2 -0 -1 -1 -2 -4 -2 -4 -3 -3 -4 -1 -2 5 -4 6 -7 -3 -1 -3 -1 -0 1
0 -1 2 1 1 -2 -3 -2 -0 2 1 1 1 1 -0 0 -1 -3 -1 0 -1 -2 -5 -4 -3 1 -2 -3 0 -0 -2 0 -4 -3 -1 -4 -6 -1
-1 -1 -1 2 -1 1 -0 -1 -1 -1 0 -0 1 0 -0 0 2 -4 -1 -2 -2 -3 -2 -2 -1 2 1 -0 -6 -1 1 -4 -3 -3 -3 0 -6 -6
0 -3 -2 -0 -1 1 -0 -1 -1 2 -0 -1 -2 -0 1 2 1 -6 -2 -1 -2 -2 -1 -2 -2 -3 -2 -0 1 0 -0 2 -1 -2 -2 3 -3 -9
2 -2 1 1 1 0 -0 0 1 -1 2 0 -0 -1 1 1 -2 -3 -0 -1 -0 -2 -0 -1 -1 1 2 -2 -6 4 -1 -3 -1 -6 -1 -3 1 -1
-0 0 -0 1 -1 1 -1 -1 1 1 -1 0 -1 -0 2 1 -3 -2 1 -1 -2 -3 -3 -3 -2 -1 -0 1 -3 -9 6 2 -1 -3 0 -7 -3 -1
-5 2 -2 -1 -1 -1 -1 -0 1 1 1 1 2 1 0 -2 -3 -1 1 -0 -0 -1 -2 -2 -0 0 -0 -1 1 -4 -1 2 1 -0 -1 0 -4 -9
-0 -1 -3 -1 -0 -2 -1 -1 -1 1 3 -2 -0 -1 -1 -1 -2 0 1 -1 -0 -1 -1 -1 1 0 0 1 0 1 -4 -6 1 2 1 1 3 2
-0 2 2 0 -0 1 0 -1 0 0 -1 2 2 1 0 -2 -1 1 0 -1 -1 -1 -1 -2 1 0 -1 0 2 -0 0 0 -3 -11 1 -0 -2 0
Height
5618 5616 5618 5623 5631 5640 5648 5654 5660 5666 5670 5671 5675 5677 5679 5681 5684 5685 5687 5688 5688 5687 5687 5687 5687 5688 5689 5689 5688 5689 5690 5691 5692 5693 5693 5693 5693 5695
5623 5620 5620 5623 5629 5636 5642 5647 5652 5656 5660 5662 5663 5665 5666 5668 5670 5672 5674 5675 5675 5674 5674 5674 5673 5671 5670 5670 5670 5671 5672 5673 5673 5674 5675 5677 5677 5678
5631 5627 5625 5626 5629 5633 5637 5641 5645 5648 5650 5652 5653 5654 5655 5656 5658 5660 5661 5661 5660 5659 5659 5659 5657 5655 5654 5652 5651 5650 5649 5649 5651 5652 5653 5655 5657 5660
5640 5634 5631 5630 5631 5632 5634 5636 5638 5640 5642 5644 5644 5645 5646 5646 5647 5648 5649 5649 5647 5645 5644 5641 5638 5636 5633 5631 5630 5629 5629 5628 5627 5626 5628 5631 5632 5636
5647 5643 5639 5637 5636 5635 5634 5634 5634 5634 5635 5636 5636 5635 5636 5636 5638 5639 5639 5638 5637 5635 5632 5629 5625 5622 5620 5617 5615 5612 5610 5606 5606 5602 5602 5602 5605 5610
5651 5647 5644 5642 5640 5639 5638 5637 5637 5636 5636 5635 5635 5634 5633 5632 5632 5632 5630 5628 5626 5622 5620 5616 5613 5609 5605 5601 5598 5594 5592 5586 5584 5581 5579 5577 5579 5582
5652 5648 5646 5643 5641 5639 5637 5636 5635 5634 5632 5631 5630 5628 5627 5625 5624 5623 5622 5618 5615 5611 5606 5602 5598 5594 5590 5586 5582 5579 5574 5570 5565 5562 5558 5554 5557 5560
5650 5647 5645 5642 5640 5637 5635 5633 5631 5630 5628 5626 5624 5623 5621 5619 5617 5615 5612 5609 5606 5601 5595 5590 5585 5579 5574 5569 5566 5562 5557 5553 5549 5545 5540 5539 5540 5543
5646 5644 5641 5639 5637 5634 5632 5629 5627 5624 5622 5620 5618 5615 5613 5610 5607 5604 5600 5596 5592 5588 5583 5576 5570 5565 5559 5553 5548 5544 5540 5537 5534 5530 5527 5525 5525 5526
5641 5638 5635 5632 5630 5627 5625 5623 5620 5617 5614 5612 5610 5606 5603 5599 5596 5592 5587 5583 5579 5574 5568 5562 5554 5547 5541 5535 5529 5526 5522 5520 5517 5514 5512 5510 5511 5511
5633 5631 5628 5625 5622 5619 5616 5614 5611 5608 5605 5602 5598 5595 5591 5587 5584 5580 5575 5570 5564 5559 5552 5547 5540 5532 5524 5515 5509 5504 5501 5500 5498 5497 5494 5493 5494 5496
5626 5622 5619 5616 5613 5610 5607 5604 5600 5597 5594 5591 5587 5584 5579 5575 5571 5566 5561 5556 5550 5543 5536 5530 5522 5515 5506 5497 5490 5486 5483 5481 5479 5477 5475 5475 5474 5476
5617 5613 5609 5606 5602 5599 5595 5592 5589 5585 5581 5578 5574 5570 5566 5561 5556 5551 5546 5540 5533 5527 5520 5512 5504 5495 5487 5481 5477 5473 5470 5466 5463 5461 5459 5456 5455 5457
5606 5603 5598 5594 5591 5587 5583 5580 5576 5573 5570 5566 5562 5557 5553 5548 5542 5537 5531 5524 5517 5510 5503 5494 5485 5477 5470 5466 5462 5458 5454 5451 5448 5444 5440 5438 5437 5437
5595 5590 5585 5581 5578 5575 5571 5568 5564 5561 5558 5554 5549 5544 5539 5534 5528 5522 5516 5509 5502 5494 5486 5477 5469 5460 5456 5452 5448 5442 5439 5433 5430 5427 5423 5420 5418 5417
5582 5577 5572 5568 5566 5562 5558 5555 5551 5548 5544 5541 5536 5531 5525 5520 5513 5508 5501 5494 5487 5478 5469 5461 5453 5446 5440 5436 5432 5427 5423 5418 5414 5409 5405 5400 5397 5395
5570 5565 5561 5558 5555 5551 5547 5543 5539 5536 5531 5527 5522 5517 5512 5506 5499 5494 5487 5480 5472 5463 5455 5446 5438 5431 5426 5421 5416 5413 5407 5402 5398 5393 5389 5384 5379 5376
5558 5552 5549 5546 5542 5538 5534 5530 5526 5522 5517 5512 5507 5501 5497 5491 5484 5479 5473 5465 5457 5449 5439 5430 5422 5416 5411 5407 5402 5399 5394 5389 5383 5378 5374 5370 5363 5360
5545 5540 5536 5532 5529 5525 5520 5516 5511 5507 5503 5498 5493 5487 5481 5475 5470 5464 5458 5450 5442 5433 5424 5416 5409 5403 5397 5391 5387 5385 5380 5375 5371 5365 5361 5356 5352 5348
5530 5525 5521 5517 5513 5509 5505 5501 5497 5492 5487 5482 5476 5470 5465 5460 5455 5449 5443 5435 5427 5417 5408 5400 5395 5390 5385 5380 5373 5371 5368 5363 5358 5354 5349 5344 5340 5337
5515 5511 5506 5502 5498 5494 5490 5486 5482 5478 5473 5467 5462 5455 5449 5444 5439 5435 5428 5421 5412 5402 5393 5385 5381 5376 5371 5367 5363 5359 5356 5352 5348 5344 5340 5334 5329 5325
5500 5495 5491 5486 5482 5477 5473 5469 5466 5461 5456 5451 5445 5439 5434 5429 5425 5420 5413 5405 5397 5387 5379 5373 5368 5363 5359 5355 5352 5349 5344 5340 5337 5333 5330 5326 5322 5318
5484 5479 5475 5471 5466 5461 5457 5453 5449 5444 5440 5434 5428 5425 5420 5416 5411 5405 5398 5390 5382 5373 5366 5360 5356 5351 5347 5344 5341 5338 5335 5331 5326 5322 5319 5315 5311 5307